Location: Amanico Ergina Village
(37.7824°N, 122.4366°W)
Time: 08:16:52
(UTC+00:00)

Uosat 12 SS-18 rocket - Pass Details

Date: 29 October 2020
Orbit: 600 x 1384 km, 64.6° (Epoch: 02 December)

Event Time Altitude Azimuth Distance (km) Brightness Sun altitude
Rises 13:24:07 0° 206° (SSW) 3,247 7.6 -14.1°
Reaches altitude 10° 13:26:40 10° 205° (SSW) 2,219 6.7 -13.6°
Maximum altitude 13:31:36 77° 119° (ESE) 675 4.3 -12.6°
Drops below altitude 10° 13:35:58 10° 34° (NE) 1,975 7.0 -11.8°
Sets 13:38:07 0° 33° (NNE) 2,859 7.8 -11.3°
